Погода Алтай

Погода Алтай : погода сейчас, прогноз погоды и архив. Всё, что Вы хотите узнать о погоде Алтай!

Поиск расширенной информации на нашем сайте:

Другие новости

Новости СМИ2

Главная страница сайта

Новости сайта

03.07.2017

Напоминаем, что на нашем специализированном сайте Метеоцентр.Азия вы можете получить высокодетализированные автоматические прогнозы погоды по пунктам России, СНГ и мира в авиационном формате (включающие направление и скорость ветра, видимость, явления погоды, количество и форму облачности, нижнюю и верхнюю границу облачности).

Рекомендуем: купить офис в бизнес центре хамовническая слобода

Погода Алтай - сегодня

Время (UTC), дата Ветер
(°,м/с) 
Видим.   Явления Облачность Т
(°С)
Тd
(°С)
f(%) Тe
(°С)
Pmin
(гПа)
dP
(гПа)
Po
(мм)
O2
(г/м3)
Тmin Tmax R s Состояние
почвы
00 16.10.18 180 (Ю) 20000 м  {снег}  ясно 
-2.1 -3.1 93 -2  1021.8  -0.5  763  310           
03 16.10.18 200 (Ю) 20000 м    9/5 600 м верхняя 
[Sc|Ci sp]
-2.5 -3.4 94 -4  1021.4  -0.3  763  311  -2.9    0.3  <0.5  равномерный
сухой снег
100% 
06 16.10.18 200 (Ю) н/о    н/о 
-0.6 -2.3 88 -3  1020  -1.4  762  308           
09 16.10.18 210 (ЮЗ) 5{10}  20000 м    9/9 600 м 
[Sc]
+0.8 -3.2 75 -2  1017.4  -1.4  760  306           
12 16.10.18 200 (Ю) 5{11}  н/о    н/о 
+0.6 -3.6 73 -2  1015.3  -2.1  758  305           
15 16.10.18 210 (ЮЗ) 5{11}  4000 м  слаб. ливневой снег  10/10 600 м кучево-дожд. 
[Cb calv]
-0.3 -2 88 -3  1013.5  -1.8  757  306    +0.9  0.0     
18 16.10.18 220 (ЮЗ) 20000 м  в посл. час ливневой снег  10/10 600 м кучево-дожд. 
[Cb calv]
-0.3 -2.2 87 -3  1010.9  -2.6  755  305           
03 17.10.18 210 (ЮЗ) 20000 м  {ливн. осадки}  10/10 300 м кучево-дожд. 
[Cb calv]
-0.1 -0.5 97 -3  1002.2  -3  749  302  -0.6    равномерный
мокрый или
старый снег
100% 
06 17.10.18 200 (Ю) н/о    н/о 
+0.3 -0.2 96 -2  998.6  -3.6  746  300           
09 17.10.18 190 (Ю) 10 км  слаб. ливневой дождь  10/10 300 м кучево-дожд. 
[Cb calv]
+0.7 +0.2 96 -2  995.3  -3.3  743  299           
12 17.10.18 180 (Ю) н/о    н/о 
+0.6 +0.2 97 -1  993.6  -1.7  742  298           
15 17.10.18 160 (Ю) 4000 м  слаб. ливневой снег  10/10 300 м кучево-дожд. 
[Cb calv]
+0.5 +0.1 97 993  -0.6  742  298    +0.9     
18 17.10.18 020 (С) 4000 м  слаб. ливневой снег  10/10 600 м кучево-дожд. 
[Cb calv]
+0.1 -0.2 98 -1  994.2  1.2  743  299           
21 17.10.18 010 (С) 4000 м  слаб. ливневой снег  10/10 300 м кучево-дожд. 
[Cb calv]
+0.1 -0.2 98 -2  996  1.8  744  300           
03 18.10.18 360 (С) 20000 м  {ливн. осадки} [диам. гололёда 3 мм]  10/10 300 м кучево-дожд. 
[Cb calv]
+0 -0.7 95 -2  1000.5  2.1  747  301  -0    равномерный
мокрый или
старый снег
100% 
06 18.10.18 тихо ()   н/о    н/о 
+0.1 -0.5 96 1002.5  749  302           
12 18.10.18 020 (С) н/о    н/о 
+0.4 -0.7 92 -2  1006.7  752  303           
15 18.10.18 020 (С) 20000 м  {ливн. осадки}  10/10 600 м 
[Sc]
+0.3 -0.7 93 -1  1008.4  1.7  753  303    +0.4  0.3     
18 18.10.18 020 (С) 4000 м  слаб. снег  10/10 600 м 
[Sc]
-0.1 -0.6 96 -2  1008.4  0.1  753  304           
21 18.10.18 360 (С) 20000 м  {снег}  10/10 600 м 
[Sc]
-0.2 -0.8 96 -1  1008.7  0.3  753  304           
00 19.10.18 360 (С) 20000 м  {снег}  10/8 600 м средняя 
[Sc|Ac und]
-0.4 -0.8 97 -1  1008.7  753  304           
03 19.10.18 360 (С) 20000 м    10/10 600 м 
[Sc]
-0.5 -0.8 98 1008.4  -0.3  753  304  -0.5    0.5  равномерный
мокрый или
старый снег
100% 
06 19.10.18 340 (С) н/о    н/о 
-0 -0.7 95 +1  1008.5  0.1  753  304           
09 19.10.18 320 (СЗ) 20000 м    10/10 600 м кучево-дожд. 
[Cb calv]
+0.3 -0.5 94 +1  1008.8  0.3  754  303           
12 19.10.18 180 (Ю) н/о    н/о 
+0.1 -0.8 94 +1  1009.3  0.5  754  304           
Время (UTC), дата Ветер
(°,м/с) 
Видим.   Явления Облачность Т
(°С)
Тd
(°С)
f(%) Тe
(°С)
Pmin
(гПа)
dP
(гПа)
Po
(мм)
O2
(г/м3)
Тmin Tmax R s Состояние
почвы

Для получения пояснительной информации подведите курсор к названию столбца.

ПОГОДА Алтай - архив

Всё, что Вы хотите узнать о погоде Алтай - удобно и подробно!

Выберите нужную дату (начиная с 1 января 2015* года) и нажмите кнопку "Найти".
Будут отображены архивные сводки погоды по пункту Алтай, начиная с указанной даты.


Отображать данные в формате CSV (для использования в таблицах Excel)


Внимание! Наш архив погоды предназначен исключительно для личного некоммерческого использования в познавательных целях. Если Вам необходимы официальные справки о состоянии погоды (для производственных, юридических, коммерческих и т.п. целей), обращайтесь в органы Росгидромета.

*Примечание: данная дата относится к архиву по метеостанциям СССР (Россия, СНГ, Балтия).
Архив по метеостанциям Зарубежной Европы и Азии (кроме Китая) хранится 10 дней, по другим регионам земного шара (Китай, Африка, Америка, Австралия, Океания) - 1 день.

Алтай - район местоположения метеостанции


Название, широта, долгота, высота метеостанции:
Алтай 60.3°ш. 68.9°д. 30 м над ур. моря [Российская Федерация]

Дополнительная информация

В oтличие oт бoльшинства пoгoдных сайтoв мы публикуем пoдрoбную метеoинфoрмацию в детальнoм прoфессиoнальнoм фoрмате.

Характеристики температуры и влажнoсти вoздуха измеряются на высoте 2 м в тени вдали oт зданий и деревьев.
Скoрoсть ветра измеряется на высoте 10 м (на урoвне рoста челoвека скoрoсть ветра ниже в 1.5-2 раза). Если метеoстанция нахoдится в гoрoде или в лесу, тo скoрoсть ветра занижена на 2-4 м/с пo сравнению с oткрытым местoм. Скoрoсть ветра над акватoриями крупных рек и oзёр, а также на вершинах хoлмoв на 2-5 м/с выше, чем в oбычных услoвиях.
Атмoсфернoе давление в разных тoчках местнoсти мoжет значительнo oтличаться oт давления на метеoстанции, в зависимoсти oт услoвий рельефа (при пoдъёме на 10 м давление пoнижается примернo на 1 мм рт.ст.).